Weather in Flagstaff

United States     35°11′54″N   111°36′39″W
temp.,
°C
wind,
m/s
gust,
m/s
humid.,
%
clouds,
%
prec.,
mm/h
press.,
hPa
HPBL,
m
25 june, sat
sat2523:00+16wsw224938 0.0 101714
02:00+16w33487 0.0 101618
05:00+15w335551 0.0 101719
08:00+22nw23335 0.0 1016727
11:00+26ne542390 0.0 10153402
14:00+14wnw91175100 4.0 1020297
17:00+20wnw334495 8.2 1015227
20:00+17nne596352 0.0 1020441
26 june, sun
sun2623:00+16wnw226190 0.0 102024
02:00+15nne335816 0.0 102018
05:00+14nnw116813 0.0 102011
08:00+19ne345117 0.0 1021512
11:00+23ene453583 0.0 10192210
14:00+26ne542776 0.0 10172901
17:00+22sw344059 0.1 1017802
20:00+18ne68599 0.4 1021363
27 june, mon
mon2723:00+15w117150 0.8 102323
02:00+15n116792 0.0 102211
05:00+13ene127714 0.0 102411
08:00+18ene33560 0.0 1023489
11:00+22ene44410 0.0 10211401
14:00+26ene55292 0.0 10192152
17:00+26ne55271 0.0 10172344
20:00+21n01380 0.0 101811
28 june, tue
tue2823:00+18wsw33502 0.0 102135
02:00+18wsw22500 0.2 102019
05:00+17wsw22500 0.2 102014
08:00+23wsw23380 0.0 1020736
11:00+27ene43244 0.0 10182943
14:00+29e541957 0.0 10153655
17:00+27sw742714 0.1 10141623
20:00+22wsw6113961 0.0 1017394
29 june, wed
wed2923:00+19wsw575110 0.0 1019133
02:00+19w455142 0.0 101863
05:00+18w22510 0.0 101816
08:00+24nne01375 0.0 1018696
11:00+26s333091 0.0 10172556
14:00+29s552388 0.2 10143251
17:00+24nw574197 0.5 10151131
20:00+16n1378100 3.8 1021237